Home > Weather > Edmundston > Past weeks

Flag for Canada Weather for the Past 2 Weeks in Edmundston, New Brunswick, Canada

Now
0 °F

Frigid.


Feels Like: 0 °F
Forecast: N/A
Wind: 2 mph from Southwest

Location: St Leonard

Current Time: Feb 12, 2016 at 7:39:57 PM

Latest Report: Feb 12, 2016 at 6:00 PM


Visibility: N/A

Pressure: 29.96 "Hg

Humidity: 74%

Dew point: -7 °F

Location of EdmundstonLocation

Historic Weather in Edmundston — Graph

°F

Edmundston Temperature Yesterday

Maximum temperature yesterday: 17 °F (at 2:00 PM)
Minimum temperature yesterday: 4 °F (at 11:00 PM)
Average temperature yesterday: 12 °F

High & Low Weather Summary for the Past Weeks

 TemperatureHumidityPressure
High45 °F (Feb 1, 2:00 PM)100% (Jan 31, 12:00 AM)30.50 "Hg (Jan 31, 12:00 AM)
Low-5 °F (Feb 8, 7:00 AM)41% (Feb 7, 4:00 PM)29.32 "Hg (Feb 1, 2:00 PM)
Average18 °F81%29.87 "Hg
* Reported Jan 28 6:00 PM — Feb 12 6:00 PM, Edmundston, Weather by CustomWeather, © 2016

Note: Actual official high and low records may vary slightly from our data, if they occured in-between our weather recording intervals... More about our weather records

Advertising

Edmundston Weather History for the Previous 24 Hours

 ConditionsComfort  
Time TempWeatherWind HumidityBarometerVisibility
6:00 PM
Fri, Feb 12
0 °FFrigid.2 mph74%29.96 "HgN/A
5:00 PM6 °FFrigid.9 mph57%29.93 "HgN/A
4:00 PM5 °FFrigid.6 mph58%29.93 "HgN/A
3:00 PM6 °FFrigid.12 mph55%29.92 "HgN/A
2:00 PM4 °FFrigid.10 mph60%29.93 "HgN/A
1:00 PM4 °FFrigid.12 mph57%29.93 "HgN/A
12:00 PM0 °FFrigid.13 mph63%29.94 "HgN/A
11:00 AM-1 °FFrigid.12 mph67%29.93 "HgN/A
10:00 AM-3 °FFrigid.13 mph72%29.93 "HgN/A
9:00 AM-3 °FFrigid.10 mph71%29.92 "HgN/A
8:00 AM-3 °FFrigid.15 mph75%29.90 "HgN/A
7:00 AM-4 °FFrigid.12 mph81%29.87 "HgN/A
6:00 AM-5 °FFrigid.7 mph83%29.85 "HgN/A
5:00 AM-4 °FFrigid.9 mph83%29.83 "HgN/A
4:00 AM-4 °FFrigid.10 mph83%29.80 "HgN/A
3:00 AM-2 °FFrigid.13 mph84%29.78 "HgN/A
2:00 AM0 °FFrigid.16 mph84%29.77 "HgN/A
1:00 AM1 °FFrigid.13 mph87%29.75 "HgN/A
12:00 AM2 °FFrigid.13 mph87%29.73 "HgN/A
11:00 PM
Thu, Feb 11
4 °FFrigid.12 mph88%29.72 "HgN/A
10:00 PM6 °FFrigid.13 mph88%29.70 "HgN/A
9:00 PM8 °FFrigid.10 mph89%29.68 "HgN/A
8:00 PM11 °FCold.13 mph89%29.66 "HgN/A
7:00 PM12 °FCold.10 mph91%29.64 "HgN/A
Weather by CustomWeather, © 2016

See weather overviewHow to use our weather pages